SCP
0 0 0 -0 0 0 0 0 0 0 0 0 0 0 0 0 0 0 0 0 0 0 0 0 0 0 0 0 0 0 0 0 0 0 0 0 0 0 0 0 0 0 0 0 0 0 0 0 0
0 0 0 -0 0 0 0 0 0 0 0 0 0 0 0 0 0 0 0 0 0 0 0 0 0 0 0 0 0 0 0 0 0 0 0 0 0 0 0 0 0 0 0 0 0 0 0 0 0
0 0 0 0 0 0 0 0 0 0 0 0 0 0 0 0 0 0 0 0 0 0 0 0 0 0 0 0 0 0 0 0 0 0 0 0 0 0 0 0 0 0 0 0 0 0 0 0 0
0 0 0 0 0 0 0 0 0 0 0 0 0 0 0 0 0 0 0 0 0 0 0 0 0 0 0 0 0 0 0 0 0 0 0 0 0 0 0 0 0 0 0 0 0 0 0 0 0
0 0 0 0 0 0 0 0 0 0 0 0 0 0 0 0 0 0 0 0 0 0 0 0 0 0 0 0 0 0 0 0 0 0 0 0 0 0 0 0 0 0 0 0 0 0 0 0 0
0 0 0 0 -0 0 0 0 0 0 0 0 0 0 0 0 0 0 0 0 0 0 0 0 0 0 0 0 0 0 0 0 0 0 0 0 0 0 0 0 0 0 0 0 0 0 0 0 0
0 0 0 0 -0 -0 -0 0 0 0 0 0 0 0 0 0 0 0 0 0 0 0 0 0 0 0 0 0 0 0 0 0 0 0 0 0 0 0 0 0 0 0 0 0 0 0 0 0 0
0 0 0 0 0 0 0 0 0 0 0 0 0 0 0 0 0 0 0 0 0 0 0 0 0 0 0 0 0 0 0 0 0 0 0 0 0 0 0 0 0 0 0 0 0 0 0 0 0
0 0 0 0 0 0 0 0 0 0 0 0 0 0 0 0 0 0 0 0 0 0 0 0 0 0 0 0 0 0 0 0 0 0 0 0 0 0 0 0 0 0 0 0 0 0 0 0 0
0 0 0 0 0 0 0 0 0 0 0 0 0 0 0 0 0 0 0 0 0 0 0 0 0 0 0 0 0 0 0 0 0 0 0 0 0 0 0 0 0 0 0 0 0 0 0 0 0
0 0 0 0 0 0 0 0 0 0 0 0 0 0 0 0 0 0 0 0 0 0 0 0 0 0 0 0 0 0 0 0 0 0 0 0 0 0 0 0 0 0 0 0 0 0 0 0 0
0 0 0 0 0 0 0 0 0 0 0 0 0 0 0 0 0 0 0 0 0 0 0 0 0 0 0 0 0 0 0 0 0 0 0 0 0 0 0 0 0 0 0 0 0 0 0 0 0
0 0 0 0 0 0 0 0 0 0 0 0 0 0 0 0 0 0 0 0 0 0 0 0 0 0 0 0 0 0 0 0 0 0 0 0 0 0 0 0 0 0 0 0 0 0 0 0 0
0 0 0 0 0 0 0 0 0 0 0 0 0 0 0 0 0 0 0 0 0 0 0 0 0 0 0 0 0 0 0 0 0 0 0 0 0 0 0 0 0 0 0 0 0 0 0 0 0
0 0 0 0 0 0 0 0 0 0 0 0 0 0 0 0 0 0 0 0 0 0 0 0 0 0 0 0 0 0 0 0 0 0 0 0 0 0 0 0 0 0 0 0 0 0 0 0 0
0 0 0 0 0 0 0 0 0 0 0 0 0 0 0 0 0 0 0 0 0 0 0 0 0 0 0 0 0 0 0 0 0 0 0 0 0 0 0 0 0 0 0 0 0 0 0 0 0
0 0 0 0 0 0 0 0 0 0 0 0 0 0 0 0 0 0 0 0 0 0 0 0 0 0 0 0 0 0 0 0 0 0 0 0 0 0 0 0 0 0 0 0 0 0 0 0 0
0 0 0 0 0 0 0 0 0 0 0 0 0 0 0 0 0 0 0 0 0 0 0 0 0 0 0 0 0 0 0 0 0 0 0 0 0 0 0 0 0 0 0 0 0 0 0 0 0
0 0 0 0 0 0 0 0 0 0 0 0 0 0 0 0 0 0 0 0 0 0 0 0 0 0 0 0 0 0 0 0 0 0 0 0 0 0 0 0 0 0 0 0 0 0 0 0 0
0 0 0 0 0 0 0 0 0 0 0 0 0 0 0 0 0 0 0 0 0 0 0 0 0 0 0 0 0 0 0 0 0 0 0 0 0 0 0 0 0 0 0 0 0 0 0 0 0
0 0 0 0 0 0 0 0 0 0 0 0 0 0 0 0 0 0 0 0 0 0 0 0 0 0 0 0 0 0 0 0 0 0 0 0 0 0 0 0 0 0 0 0 0 0 0 0 0
0 0 0 0 0 0 0 0 0 0 0 0 0 0 0 0 0 0 0 0 0 0 0 0 0 0 0 0 0 0 0 0 0 0 0 0 0 0 0 0 0 0 0 0 0 0 0 0 0
0 0 0 0 0 0 0 0 0 0 0 0 0 0 0 0 0 0 0 -0 0 0 0 0 0 0 0 0 0 0 0 0 0 0 0 0 0 0 0 0 0 0 0 0 0 0 0 0 0
0 0 0 0 0 0 0 0 0 0 0 0 0 0 0 0 0 0 0 0 0 0 0 0 0 0 0 0 0 0 0 0 0 0 0 0 0 0 0 0 0 0 0 0 0 0 0 0 0
0 0 0 0 0 0 0 0 0 0 0 0 0 0 0 0 0 0 0 0 0 0 0 0 0 0 0 0 0 0 0 0 0 0 0 0 0 0 0 0 0 0 0 0 0 0 0 0 0
0 0 0 0 0 0 0 0 0 0 0 0 0 0 0 0 0 0 0 0 0 0 0 0 0 0 0 0 0 0 0 0 0 0 0 0 0 0 0 0 0 0 0 0 0 0 0 0 0
0 0 0 0 0 0 0 0 0 0 0 0 0 0 0 0 0 0 0 0 0 0 0 0 0 0 0 0 0 0 0 0 0 0 0 0 0 0 0 0 0 0 0 0 0 0 0 0 0
0 0 0 0 0 0 0 0 0 0 0 0 0 0 0 0 0 0 0 0 0 0 0 0 0 0 0 0 0 0 0 0 0 0 0 0 0 0 0 0 0 0 0 0 0 0 0 0 0
0 0 0 0 0 0 0 0 0 0 0 0 0 0 0 0 0 0 0 0 0 0 0 0 0 0 0 0 0 0 0 0 0 0 0 0 0 0 0 0 0 0 0 0 0 0 0 0 0
0 0 0 0 0 0 0 0 0 0 0 0 0 -0 0 0 0 0 0 0 0 0 0 0 0 0 0 0 0 0 0 0 0 0 0 0 0 0 0 0 0 0 0 0 0 0 0 0 0
Wind_Speed
3 2 3 4 6 4 3 5 4 3 3 3 4 6 5 4 5 4 2 11 12 15 17 21 24 23 21 20 18 17 16 15 14 13 13 12 12 11 11 11 11 11 11 12 12 13 13 13 13
1 2 4 5 5 1 5 4 5 6 6 3 3 5 4 4 2 4 6 10 15 16 14 16 24 23 22 21 19 18 17 16 15 14 13 13 12 11 11 11 11 10 11 11 11 11 12 12 12
1 1 4 5 3 5 4 4 6 3 4 4 4 2 4 5 5 8 7 14 16 14 12 16 25 24 23 21 20 19 18 17 16 15 14 13 12 12 11 11 10 10 10 10 10 10 10 11 11
3 4 5 4 4 6 6 7 5 3 2 3 5 3 3 2 7 8 9 17 17 13 11 15 26 24 23 22 21 20 19 18 17 16 15 14 13 12 12 11 10 10 10 9 9 9 9 9 9
4 4 4 2 6 6 5 6 7 7 6 5 5 5 4 2 3 7 15 19 18 14 11 13 25 24 23 22 21 20 19 18 18 16 15 15 14 13 12 11 10 10 9 9 8 8 8 8 8
4 5 3 3 7 7 5 2 4 4 3 2 4 4 5 2 5 9 15 15 15 16 13 12 24 24 23 22 22 21 20 19 18 17 16 15 14 13 13 12 11 10 9 9 8 7 7 7 7
4 4 2 4 5 7 5 1 3 3 3 6 7 5 4 3 4 8 10 9 10 12 12 10 13 18 23 23 22 21 20 19 19 18 17 16 15 14 13 12 11 10 9 9 8 7 6 5 5
5 4 1 3 4 7 4 2 2 4 5 2 8 7 7 7 6 7 7 7 8 10 11 10 9 10 11 14 21 21 21 20 19 18 17 16 15 15 14 12 12 11 10 9 8 7 6 5 4
5 4 3 5 5 6 4 3 3 2 2 2 4 4 4 10 11 10 6 6 8 11 11 10 9 9 9 9 15 18 20 20 19 16 18 15 6 5 7 10 13 12 11 10 9 8 7 6 4
4 3 8 7 6 6 5 5 4 3 4 4 4 1 3 10 15 15 13 14 15 17 15 12 12 10 9 9 8 7 7 8 8 6 7 5 5 4 6 12 14 13 12 11 10 9 7 5 1
5 7 8 8 8 6 5 5 3 4 8 10 10 7 7 9 13 16 17 17 18 16 15 14 13 11 11 8 6 4 4 4 6 7 7 6 5 4 4 3 6 6 8 4 5 4 2 2 2
3 7 7 7 5 4 5 4 4 6 13 9 9 7 11 14 17 19 19 17 12 11 16 15 14 12 12 9 7 6 5 5 5 7 8 6 4 4 4 3 3 3 2 3 3 2 3 4 4
5 6 5 5 7 6 6 6 5 10 14 8 5 7 14 17 18 18 16 13 11 13 15 15 15 15 12 10 8 8 8 7 7 6 8 8 6 6 5 4 4 4 3 4 4 4 5 5 5
4 5 8 9 10 5 7 7 3 14 8 6 6 8 14 18 20 15 13 15 16 17 17 15 17 16 13 12 11 9 8 7 7 8 9 10 8 7 6 6 6 5 5 5 5 6 5 5 4
4 6 10 6 3 2 1 6 7 13 6 9 10 8 10 16 16 19 20 20 21 17 16 16 17 15 15 14 13 9 8 9 9 9 9 11 9 9 8 7 7 7 6 6 5 5 4 5 5
3 3 6 8 2 2 1 10 11 7 6 10 10 8 7 9 13 18 18 17 16 13 14 16 15 16 16 14 12 9 9 10 9 8 9 12 12 10 9 8 8 7 6 6 6 5 5 5 5
3 2 5 8 3 1 2 11 12 5 5 8 8 8 6 5 7 11 13 15 14 15 14 15 15 16 15 13 10 9 8 10 9 8 9 11 13 12 10 9 7 7 6 6 7 6 5 6 6
3 5 5 6 6 2 5 11 16 9 3 4 6 7 7 6 6 8 9 10 10 10 11 13 14 13 11 8 6 6 7 8 7 9 10 11 11 12 11 8 8 7 6 7 6 7 6 5 5
4 5 8 9 5 4 7 11 12 7 3 5 6 7 7 7 7 4 1 5 7 8 10 13 14 12 10 8 8 9 10 8 7 8 10 12 12 12 12 9 8 8 9 10 10 7 7 6 3
4 5 7 7 4 3 6 8 7 2 2 2 3 6 7 8 10 8 3 3 6 8 10 11 13 12 12 12 9 6 6 5 6 6 9 11 12 12 12 12 9 10 9 9 10 9 6 5 6
4 5 5 5 8 5 5 7 5 3 3 4 4 4 5 6 7 7 5 1 2 6 9 10 12 12 12 10 5 2 2 1 3 6 7 9 12 12 13 13 12 11 11 11 12 11 11 9 7
5 4 3 3 4 5 3 3 6 2 2 2 3 4 4 5 5 5 4 2 1 4 5 6 7 9 9 8 7 9 9 11 10 8 7 8 11 13 14 13 13 13 12 13 12 12 11 10 9
5 2 2 2 1 3 2 2 8 3 3 3 2 1 2 3 4 4 4 3 3 2 1 3 4 6 7 8 10 10 12 12 7 5 7 9 9 12 14 14 13 14 13 14 13 12 13 12 12
1 4 4 4 4 3 3 3 7 5 7 6 4 2 1 2 4 4 5 5 4 4 3 0 2 4 5 8 9 10 13 12 9 9 9 8 8 9 13 13 14 14 13 14 15 14 15 14 14
4 5 5 5 4 5 3 3 9 7 5 7 7 4 2 1 2 3 5 5 5 5 4 2 1 3 4 6 8 10 12 12 13 12 10 10 8 9 11 13 14 14 15 14 13 14 16 16 15
2 5 4 2 4 7 6 5 8 5 2 4 4 3 2 1 1 1 2 2 3 4 3 2 2 3 3 5 7 8 9 8 9 11 10 10 10 10 10 13 14 16 15 15 14 14 16 14 17
3 3 5 5 1 4 7 8 7 4 5 3 2 2 2 2 2 2 2 2 2 3 3 3 3 4 4 5 6 6 7 8 10 10 9 9 10 9 10 12 14 15 15 16 15 14 16 15 16
2 5 4 3 1 4 7 6 4 3 2 2 3 4 5 3 2 2 2 3 3 3 3 3 3 4 4 4 5 5 6 7 8 8 9 10 11 10 10 11 12 13 14 15 15 15 15 16 16
4 3 4 4 4 4 4 9 6 4 5 5 5 5 5 4 3 3 3 3 3 3 4 4 4 4 4 5 5 5 6 6 6 7 9 9 9 9 10 11 12 12 13 13 14 16 14 17 17
6 7 7 4 5 5 3 10 5 3 3 4 3 3 3 3 3 3 3 3 4 4 4 4 4 4 5 5 4 5 6 6 6 8 9 8 9 9 10 10 11 12 12 12 14 16 16 17 18
Wind_Direction
326 62 74 58 55 50 271 258 194 198 196 194 150 129 146 182 192 221 156 148 146 159 170 174 172 171 170 168 164 162 159 156 153 148 143 139 134 127 121 115 108 101 94 90 87 83 78 75 74
21 76 59 63 84 44 274 254 190 203 192 156 124 118 136 213 198 152 148 166 155 162 169 170 174 173 172 170 167 165 164 161 158 154 151 147 142 136 130 123 117 110 102 96 91 87 82 78 77
347 90 84 77 130 192 234 240 216 224 189 159 145 145 176 208 191 188 187 160 156 165 168 173 175 175 174 172 170 169 167 165 163 160 157 153 149 144 138 132 126 119 112 104 98 92 88 83 80
57 51 57 77 244 233 222 235 216 180 230 205 152 170 225 220 187 186 160 157 159 166 167 178 177 177 176 175 174 172 171 169 167 165 163 160 156 152 147 141 136 130 123 115 106 99 93 87 84
62 73 54 331 275 269 251 231 186 186 202 207 173 187 232 291 169 150 154 161 164 166 168 182 179 180 179 178 177 176 175 174 172 170 169 166 163 158 154 151 146 141 135 126 118 109 101 94 89
58 66 71 283 284 293 294 239 174 204 221 220 184 194 239 329 156 159 160 165 166 167 170 182 183 183 183 182 181 179 179 178 176 175 174 172 168 166 164 161 157 153 148 141 133 124 114 106 100
100 98 187 247 281 298 294 253 182 200 215 212 187 190 266 271 197 152 152 151 160 166 172 185 186 185 186 186 185 183 183 182 181 180 179 178 176 175 173 171 169 165 160 155 149 143 135 125 115
120 103 263 264 266 277 279 281 224 212 237 210 157 177 234 215 161 131 129 140 159 172 179 186 186 182 184 187 190 188 187 186 186 185 183 182 183 182 181 178 178 177 174 171 167 163 160 153 142
85 85 243 244 239 260 274 277 270 278 243 247 197 210 240 142 136 134 139 156 172 183 188 186 186 181 179 181 193 191 191 191 190 188 187 185 176 174 181 181 188 187 186 185 183 182 182 179 185
99 172 231 224 217 244 265 248 253 251 252 255 258 315 102 142 158 168 177 181 185 190 192 190 187 181 177 186 190 186 187 189 182 174 178 158 152 169 174 193 198 197 196 197 197 199 196 180 188
170 206 236 248 247 245 253 250 235 226 257 232 228 210 162 169 177 186 192 192 194 190 189 192 190 183 182 184 181 179 177 175 170 170 163 154 157 175 187 197 212 206 200 194 211 212 177 174 197
233 247 245 256 262 256 249 250 247 228 244 238 224 184 173 184 192 196 199 201 192 185 194 192 190 187 188 185 184 179 179 179 179 178 167 162 168 182 189 196 202 194 180 183 203 207 212 214 217
253 260 266 265 279 258 253 249 258 261 259 273 254 179 188 196 203 207 207 204 192 193 194 194 191 191 189 188 189 190 190 188 182 180 182 177 180 189 192 199 199 199 191 192 201 210 216 221 224
269 287 294 286 280 259 241 260 222 266 276 297 267 220 206 206 208 206 208 206 204 203 197 191 194 193 190 193 196 196 193 188 185 190 191 188 189 189 191 199 203 205 201 200 201 206 210 218 220
305 315 316 296 296 287 239 294 238 254 309 302 287 263 226 219 211 209 209 209 206 205 197 192 194 193 194 197 198 197 194 192 197 198 195 197 195 193 195 201 207 209 203 202 205 213 213 221 224
354 356 315 298 314 306 290 277 265 273 300 292 294 293 266 233 218 219 216 213 207 201 197 196 195 193 198 199 197 198 195 198 202 199 198 202 202 197 197 205 211 203 195 197 203 207 211 223 224
15 319 282 296 293 250 262 272 285 317 293 296 309 315 309 280 244 230 220 213 205 200 196 195 197 195 196 196 195 195 194 202 203 200 203 204 204 202 202 210 210 195 198 204 212 208 204 218 225
271 282 277 279 291 288 263 269 291 317 333 327 334 343 349 340 288 253 223 208 199 196 194 196 199 199 189 184 185 191 202 207 204 205 207 202 204 203 205 211 206 193 201 209 212 214 210 216 219
236 251 274 270 283 306 274 282 296 314 27 24 11 8 5 348 328 336 187 173 178 186 191 195 198 197 184 183 192 199 210 207 208 210 207 205 205 202 205 214 204 201 211 215 211 211 216 223 182
240 276 284 294 327 309 297 302 311 358 68 49 26 17 10 6 8 12 42 137 180 194 198 199 201 197 196 202 200 199 202 205 207 211 213 209 209 207 209 214 211 206 214 217 211 205 212 215 183
270 246 260 286 327 351 358 344 347 356 28 22 13 12 15 20 16 10 18 75 189 206 206 206 205 202 202 198 180 173 169 246 213 216 219 214 212 212 216 215 214 211 211 220 217 209 210 220 207
272 253 244 303 3 315 22 312 289 287 349 359 355 7 16 16 20 17 13 2 271 236 217 215 208 205 202 189 187 193 206 222 223 219 219 214 212 216 217 219 216 216 217 222 219 214 213 213 220
239 306 282 259 147 318 314 202 281 256 224 239 258 313 3 18 28 20 3 342 335 326 249 219 208 209 200 197 202 207 223 234 235 223 225 224 220 220 220 219 219 221 222 224 221 216 213 215 222
2 21 37 48 67 322 253 176 278 226 211 204 219 233 308 20 27 18 8 8 3 5 8 352 210 224 209 205 211 216 228 235 239 235 233 233 230 226 224 222 223 225 226 225 223 221 219 220 222
67 57 14 354 4 269 289 233 253 250 220 182 184 194 214 351 29 16 17 12 6 4 356 349 270 254 231 217 221 225 232 235 239 241 240 240 240 236 229 224 227 229 230 229 224 223 224 223 222
186 136 150 236 263 293 318 257 263 300 115 130 146 164 184 210 320 339 347 354 348 354 355 340 300 276 258 235 236 236 237 238 245 246 243 243 245 243 235 227 230 232 231 230 226 227 227 227 227
158 167 169 141 285 282 288 293 312 39 69 93 123 157 202 229 246 265 297 316 328 340 339 322 301 289 279 258 252 252 245 242 249 253 250 252 252 251 241 234 235 235 233 232 228 230 229 228 228
147 145 102 129 215 277 293 288 252 204 189 168 191 211 223 228 244 269 290 302 316 321 324 332 310 288 285 277 263 258 256 251 253 259 260 258 258 256 252 246 242 240 238 235 232 234 233 231 231
159 175 154 146 165 180 270 274 237 213 187 189 217 225 224 224 238 267 287 306 328 339 341 335 324 309 299 289 279 277 276 272 268 264 264 264 265 262 258 255 250 246 243 239 236 237 234 234 235
181 185 153 165 227 194 209 268 268 188 184 187 213 237 241 245 260 281 308 339 345 338 329 322 311 302 291 288 287 283 282 284 280 273 271 269 268 267 263 261 257 254 249 243 239 241 238 236 237